DYE318 LPPS-EKBI

Flight info

Callsign DYE318
Flight time N/A
Altitude 40000
Route DEGUN DCT TELMU DCT TABAX DCT SOPOP DCT XERES DCT RIMTU DCT KORUL DCT KOLEK DCT ERCOZ DCT DOMOK DCT ORTAC/N0473F410 DCT VEXEN L980 MID UM185 KOBBI M197 BRAIN Q295 SOMVA DCT KONOM DCT LUTIR
Aircraft B772/H-SDE2E3FGHIJ5LORVWXY/LB1D1

Departure

Time 2026-04-22 14:01
Airport Porto Santo Airport (LPPS)

Arrival

Time N/A
Airport Billund Airport (EKBI)
Time Latitude Longitude Altitude Speed Heading
2026-04-22 14:01 32.97788 -16.31040 6122 ft 260 kts 96°
2026-04-22 14:01 32.98035 -16.28898 6870 ft 266 kts 71°
2026-04-22 14:01 32.98728 -16.27361 7408 ft 271 kts 56°
2026-04-22 14:02 32.99894 -16.25592 8157 ft 273 kts 50°
2026-04-22 14:02 33.01148 -16.23866 8884 ft 277 kts 49°
2026-04-22 14:02 33.02431 -16.22125 9584 ft 284 kts 49°
2026-04-22 14:02 33.03768 -16.20298 10104 ft 299 kts 49°
2026-04-22 14:03 33.05180 -16.18349 10398 ft 324 kts 50°
2026-04-22 14:03 33.06705 -16.16221 10595 ft 351 kts 50°
2026-04-22 14:03 33.08344 -16.13917 10949 ft 373 kts 50°
2026-04-22 14:03 33.10040 -16.11518 11653 ft 384 kts 50°
2026-04-22 14:04 33.11781 -16.09044 12490 ft 391 kts 50°
2026-04-22 14:04 33.13539 -16.06539 13379 ft 397 kts 50°
2026-04-22 14:04 33.15319 -16.03998 14206 ft 403 kts 50°
2026-04-22 14:04 33.17110 -16.01437 14920 ft 410 kts 51°
2026-04-22 14:05 33.18957 -15.98795 15638 ft 417 kts 51°
2026-04-22 14:05 33.20834 -15.96106 16344 ft 424 kts 51°
2026-04-22 14:05 33.24670 -15.90605 17756 ft 437 kts 51°
2026-04-22 14:06 33.26638 -15.87781 18447 ft 444 kts 51°
2026-04-22 14:06 33.28620 -15.84934 19056 ft 449 kts 51°
2026-04-22 14:06 33.30629 -15.82048 19712 ft 452 kts 51°
2026-04-22 14:06 33.32648 -15.79142 20349 ft 456 kts 51°
2026-04-22 14:07 33.34688 -15.76205 20969 ft 461 kts 51°
2026-04-22 14:07 33.36719 -15.73279 21581 ft 465 kts 51°
2026-04-22 14:07 33.38793 -15.70289 22203 ft 469 kts 51°
2026-04-22 14:07 33.40920 -15.67302 22760 ft 473 kts 46°
2026-04-22 14:08 33.43488 -15.64814 23254 ft 478 kts 27°
2026-04-22 14:08 33.46494 -15.63152 23750 ft 479 kts 20°
2026-04-22 14:08 33.49608 -15.61666 24252 ft 483 kts 19°
2026-04-22 14:08 33.52757 -15.60217 24808 ft 485 kts 18°
2026-04-22 14:09 33.55914 -15.58756 25371 ft 488 kts 19°
2026-04-22 14:09 33.59082 -15.57261 25869 ft 492 kts 19°
2026-04-22 14:09 33.62272 -15.55723 26347 ft 496 kts 19°
2026-04-22 14:09 33.65479 -15.54152 26823 ft 499 kts 20°
2026-04-22 14:10 33.68703 -15.52555 27282 ft 503 kts 20°
2026-04-22 14:10 33.71941 -15.50941 27739 ft 506 kts 20°
2026-04-22 14:10 33.75205 -15.49312 28161 ft 509 kts 20°
2026-04-22 14:10 33.78486 -15.47673 28591 ft 512 kts 20°
2026-04-22 14:11 33.81790 -15.46023 29033 ft 515 kts 20°
2026-04-22 14:11 33.85107 -15.44367 29439 ft 517 kts 20°
2026-04-22 14:11 33.88445 -15.42700 29804 ft 521 kts 20°
2026-04-22 14:11 33.91797 -15.41026 30138 ft 524 kts 20°
2026-04-22 14:12 33.95176 -15.39337 30447 ft 526 kts 20°
2026-04-22 14:12 33.98558 -15.37644 30761 ft 528 kts 19°
2026-04-22 14:12 34.01301 -15.36270 30989 ft 529 kts 19°
2026-04-22 14:12 34.04665 -15.34584 31267 ft 531 kts 19°
2026-04-22 14:13 34.08082 -15.32870 31531 ft 533 kts 19°
2026-04-22 14:13 34.11518 -15.31145 31773 ft 535 kts 19°
2026-04-22 14:13 34.14947 -15.29422 32071 ft 535 kts 19°
2026-04-22 14:13 34.18386 -15.27691 32398 ft 534 kts 19°
2026-04-22 14:14 34.21811 -15.25966 32771 ft 533 kts 19°
2026-04-22 14:14 34.25236 -15.24239 33140 ft 532 kts 19°
2026-04-22 14:14 34.28650 -15.22517 33485 ft 531 kts 19°
2026-04-22 14:14 34.32065 -15.20794 33818 ft 531 kts 19°
2026-04-22 14:15 34.35470 -15.19074 34133 ft 530 kts 19°
2026-04-22 14:15 34.38877 -15.17351 34432 ft 530 kts 19°
2026-04-22 14:15 34.42270 -15.15634 34716 ft 529 kts 19°
2026-04-22 14:15 34.45663 -15.13916 35024 ft 528 kts 19°
2026-04-22 14:16 34.49057 -15.12195 35305 ft 528 kts 19°
2026-04-22 14:16 34.52440 -15.10478 35588 ft 527 kts 19°
2026-04-22 14:16 34.55815 -15.08764 35861 ft 526 kts 19°
2026-04-22 14:16 34.59192 -15.07047 36157 ft 525 kts 19°
2026-04-22 14:17 34.62563 -15.05332 36442 ft 525 kts 18°
2026-04-22 14:17 34.65935 -15.03615 36712 ft 524 kts 18°
2026-04-22 14:17 34.69296 -15.01902 36963 ft 523 kts 18°
2026-04-22 14:17 34.72650 -15.00191 37237 ft 523 kts 18°
2026-04-22 14:18 34.75443 -14.98765 37478 ft 522 kts 18°
2026-04-22 14:18 34.77657 -14.97634 37639 ft 521 kts 18°
2026-04-22 14:18 34.81002 -14.95924 37893 ft 521 kts 18°
2026-04-22 14:18 34.84346 -14.94213 38147 ft 520 kts 18°
2026-04-22 14:19 34.87677 -14.92507 38385 ft 519 kts 18°
2026-04-22 14:19 34.91005 -14.90801 38646 ft 519 kts 18°
2026-04-22 14:19 34.94333 -14.89093 38869 ft 517 kts 18°
2026-04-22 14:19 34.97634 -14.87397 39130 ft 514 kts 18°
2026-04-22 14:20 35.03664 -14.84297 39430 ft 514 kts 18°
2026-04-22 14:20 35.06958 -14.82602 39571 ft 515 kts 18°
2026-04-22 14:20 35.10273 -14.80895 39672 ft 516 kts 18°
2026-04-22 14:21 35.16859 -14.77500 39858 ft 518 kts 18°
2026-04-22 14:21 35.20185 -14.75781 39923 ft 519 kts 18°
2026-04-22 14:22 35.30193 -14.70601 39987 ft 521 kts 18°
2026-04-22 14:23 35.40212 -14.65400 39985 ft 521 kts 18°
2026-04-22 14:23 35.46891 -14.61926 39986 ft 521 kts 18°
2026-04-22 14:24 35.53566 -14.58447 39985 ft 521 kts 18°
2026-04-22 14:24 35.60223 -14.54972 39982 ft 520 kts 19°
2026-04-22 14:25 35.66993 -14.51998 39981 ft 512 kts
2026-04-22 14:25 35.73908 -14.49933 39976 ft 511 kts
2026-04-22 14:26 35.80836 -14.47939 39981 ft 511 kts
2026-04-22 14:26 35.87752 -14.45896 39980 ft 511 kts
2026-04-22 14:27 35.94666 -14.43811 39973 ft 512 kts
2026-04-22 14:27 36.00961 -14.41900 39975 ft 512 kts
2026-04-22 14:28 36.07881 -14.39797 39975 ft 512 kts
2026-04-22 14:28 36.14815 -14.37688 39973 ft 512 kts
2026-04-22 14:29 36.21742 -14.35580 39970 ft 512 kts
2026-04-22 14:29 36.28627 -14.33480 39971 ft 512 kts
2026-04-22 14:30 36.35551 -14.31364 39968 ft 512 kts
2026-04-22 14:30 36.42477 -14.29244 39967 ft 512 kts
2026-04-22 14:31 36.49404 -14.27120 39965 ft 512 kts
2026-04-22 14:31 36.56325 -14.24994 39964 ft 512 kts
2026-04-22 14:32 36.63262 -14.22858 39961 ft 512 kts
2026-04-22 14:32 36.70183 -14.20724 39963 ft 512 kts
2026-04-22 14:33 36.77098 -14.18587 39954 ft 512 kts
2026-04-22 14:33 36.84014 -14.16447 39963 ft 512 kts
2026-04-22 14:34 36.90932 -14.14301 39959 ft 512 kts
2026-04-22 14:34 36.97856 -14.12150 39955 ft 512 kts
2026-04-22 14:35 37.04139 -14.10195 39954 ft 512 kts 10°
2026-04-22 14:35 37.11065 -14.08035 39951 ft 512 kts 10°
2026-04-22 14:36 37.17992 -14.05871 39950 ft 512 kts 10°
2026-04-22 14:36 37.24913 -14.03705 39949 ft 512 kts 10°
2026-04-22 14:37 37.31820 -14.01539 39946 ft 512 kts 10°
2026-04-22 14:37 37.38681 -13.99384 39947 ft 512 kts 10°
2026-04-22 14:38 37.45598 -13.97206 39946 ft 511 kts 10°
2026-04-22 14:38 37.52500 -13.95030 39944 ft 511 kts 10°
2026-04-22 14:39 37.59408 -13.92847 39943 ft 511 kts 10°
2026-04-22 14:39 37.66308 -13.90663 39933 ft 511 kts 10°
2026-04-22 14:40 37.76656 -13.87379 39932 ft 511 kts 11°
2026-04-22 14:40 37.83545 -13.85187 39935 ft 511 kts 11°
2026-04-22 14:41 37.90443 -13.82989 39939 ft 511 kts 11°
2026-04-22 14:41 37.97340 -13.80786 39939 ft 511 kts 11°
2026-04-22 14:42 38.03599 -13.78783 39935 ft 511 kts 11°
2026-04-22 14:42 38.10491 -13.76574 39930 ft 511 kts 11°
2026-04-22 14:43 38.17326 -13.74047 39931 ft 513 kts 19°
2026-04-22 14:43 38.23869 -13.70368 39928 ft 515 kts 22°
2026-04-22 14:44 38.30369 -13.66508 39930 ft 514 kts 23°
2026-04-22 14:44 38.36858 -13.62688 39930 ft 514 kts 22°
2026-04-22 14:45 38.43383 -13.58891 39929 ft 514 kts 22°
2026-04-22 14:45 38.49889 -13.55117 39929 ft 514 kts 22°
2026-04-22 14:46 38.56392 -13.51336 39925 ft 514 kts 22°
2026-04-22 14:46 38.62871 -13.47558 39927 ft 513 kts 22°
2026-04-22 14:47 38.69373 -13.43757 39925 ft 513 kts 22°
2026-04-22 14:47 38.75867 -13.39953 39927 ft 513 kts 22°
2026-04-22 14:48 38.82362 -13.36141 39925 ft 513 kts 22°
2026-04-22 14:48 38.88806 -13.32351 39926 ft 513 kts 22°
2026-04-22 14:49 38.95296 -13.28527 39926 ft 512 kts 23°
2026-04-22 14:49 39.01225 -13.25026 39926 ft 512 kts 23°
2026-04-22 14:50 39.07711 -13.21190 39926 ft 512 kts 23°
2026-04-22 14:50 39.14147 -13.17375 39923 ft 512 kts 23°
2026-04-22 14:51 39.20620 -13.13530 39923 ft 512 kts 23°
2026-04-22 14:51 39.27086 -13.09682 39923 ft 512 kts 23°
2026-04-22 14:52 39.33555 -13.05823 39930 ft 511 kts 23°
2026-04-22 14:52 39.40013 -13.01964 39925 ft 511 kts 23°
2026-04-22 14:53 39.46471 -12.98097 39926 ft 511 kts 23°
2026-04-22 14:53 39.52917 -12.94229 39924 ft 511 kts 23°
2026-04-22 14:54 39.59325 -12.90376 39924 ft 511 kts 23°
2026-04-22 14:54 39.65146 -12.86869 39923 ft 510 kts 23°
2026-04-22 14:55 39.71584 -12.82983 39926 ft 510 kts 23°
2026-04-22 14:55 39.78040 -12.79077 39927 ft 510 kts 24°
2026-04-22 14:56 39.84476 -12.75176 39924 ft 510 kts 24°
2026-04-22 14:56 39.90906 -12.71270 39926 ft 510 kts 24°
2026-04-22 14:57 39.97299 -12.67379 39924 ft 510 kts 24°
2026-04-22 14:57 40.03193 -12.63784 39925 ft 510 kts 24°
2026-04-22 14:58 40.09613 -12.59860 39928 ft 509 kts 24°
2026-04-22 14:58 40.16033 -12.55928 39932 ft 509 kts 24°
2026-04-22 14:59 40.22452 -12.51988 39928 ft 509 kts 24°
2026-04-22 14:59 40.28869 -12.48041 39929 ft 509 kts 24°
2026-04-22 15:00 40.35282 -12.44089 39932 ft 509 kts 24°
2026-04-22 15:00 40.41553 -12.39917 39935 ft 509 kts 32°
2026-04-22 15:01 40.47188 -12.34289 39937 ft 509 kts 44°
2026-04-22 15:01 40.52071 -12.27565 39944 ft 509 kts 49°
2026-04-22 15:02 40.56831 -12.20672 39937 ft 509 kts 49°
2026-04-22 15:02 40.61611 -12.13794 39940 ft 509 kts 48°
2026-04-22 15:03 40.66421 -12.06934 39943 ft 509 kts 48°
2026-04-22 15:03 40.71228 -12.00092 39949 ft 509 kts 48°
2026-04-22 15:04 40.76034 -11.93234 39951 ft 509 kts 48°
2026-04-22 15:04 40.80830 -11.86369 39948 ft 509 kts 48°
2026-04-22 15:05 40.85593 -11.79534 39955 ft 509 kts 48°
2026-04-22 15:05 40.90380 -11.72648 39954 ft 509 kts 48°
2026-04-22 15:06 40.95166 -11.65749 39961 ft 509 kts 48°
2026-04-22 15:06 40.99941 -11.58848 39961 ft 508 kts 48°
2026-04-22 15:07 41.03544 -11.53632 39963 ft 508 kts 48°
2026-04-22 15:07 41.08280 -11.46762 39963 ft 508 kts 48°
2026-04-22 15:08 41.13043 -11.39835 39963 ft 508 kts 48°
2026-04-22 15:08 41.17801 -11.32900 39971 ft 508 kts 49°
2026-04-22 15:09 41.22556 -11.25953 39968 ft 508 kts 49°
2026-04-22 15:09 41.27301 -11.19004 39975 ft 507 kts 49°
2026-04-22 15:10 41.32037 -11.12053 39977 ft 507 kts 49°
2026-04-22 15:10 41.36743 -11.05129 39977 ft 507 kts 49°
2026-04-22 15:11 41.41473 -10.98154 39981 ft 507 kts 49°
2026-04-22 15:11 41.46203 -10.91163 39983 ft 507 kts 49°
2026-04-22 15:12 41.50923 -10.84169 39990 ft 507 kts 49°
2026-04-22 15:12 41.55645 -10.77156 39989 ft 507 kts 49°
2026-04-22 15:13 41.60351 -10.70150 39990 ft 507 kts 49°
2026-04-22 15:13 41.65068 -10.63112 39995 ft 507 kts 49°
2026-04-22 15:14 41.69770 -10.56078 39993 ft 507 kts 49°
2026-04-22 15:14 41.74469 -10.49033 39997 ft 507 kts 49°
2026-04-22 15:15 41.79163 -10.41979 39996 ft 507 kts 49°
2026-04-22 15:15 41.83828 -10.34951 40000 ft 507 kts 49°
2026-04-22 15:16 41.88517 -10.27869 40001 ft 507 kts 49°
2026-04-22 15:16 41.93202 -10.20778 40005 ft 507 kts 49°
2026-04-22 15:17 41.97879 -10.13680 40006 ft 507 kts 49°
2026-04-22 15:17 42.02162 -10.07187 40005 ft 507 kts 47°
2026-04-22 15:18 42.07195 -10.00522 40018 ft 507 kts 43°
2026-04-22 15:18 42.12355 -9.94043 40014 ft 508 kts 43°
2026-04-22 15:19 42.17513 -9.87536 40015 ft 508 kts 43°
2026-04-22 15:19 42.22647 -9.80982 40019 ft 508 kts 44°
2026-04-22 15:20 42.27729 -9.74454 40017 ft 508 kts 44°
2026-04-22 15:20 42.32841 -9.67871 40020 ft 508 kts 44°
2026-04-22 15:21 42.37952 -9.61277 40025 ft 507 kts 44°
2026-04-22 15:21 42.43052 -9.54685 40022 ft 507 kts 44°
2026-04-22 15:22 42.48157 -9.48070 40025 ft 507 kts 44°
2026-04-22 15:22 42.53246 -9.41461 40028 ft 507 kts 44°
2026-04-22 15:23 42.58333 -9.34838 40019 ft 506 kts 44°
2026-04-22 15:23 42.63410 -9.28212 40023 ft 506 kts 44°
2026-04-22 15:24 42.68479 -9.21581 40026 ft 506 kts 44°
2026-04-22 15:24 42.73511 -9.14982 40024 ft 506 kts 44°
2026-04-22 15:25 42.78565 -9.08340 40032 ft 506 kts 44°
2026-04-22 15:25 42.83624 -9.01673 40027 ft 506 kts 44°
2026-04-22 15:26 42.88675 -8.95002 40025 ft 505 kts 44°
2026-04-22 15:26 42.93721 -8.88322 40018 ft 505 kts 44°
2026-04-22 15:27 42.98756 -8.81640 40031 ft 505 kts 44°
2026-04-22 15:27 43.03242 -8.75672 40011 ft 504 kts 44°
2026-04-22 15:28 43.08059 -8.69250 40026 ft 504 kts 44°
2026-04-22 15:28 43.13080 -8.62541 40029 ft 503 kts 44°
2026-04-22 15:29 43.18086 -8.55834 40029 ft 503 kts 44°
2026-04-22 15:30 43.25551 -8.45803 40015 ft 502 kts 44°
2026-04-22 15:30 43.30538 -8.39092 40013 ft 502 kts 43°
2026-04-22 15:31 43.35967 -8.33095 40030 ft 500 kts 33°
2026-04-22 15:31 43.41753 -8.27775 40012 ft 500 kts 32°
2026-04-22 15:32 43.47546 -8.22486 40007 ft 500 kts 32°
2026-04-22 15:32 43.53322 -8.17134 40025 ft 500 kts 32°
2026-04-22 15:33 43.59068 -8.11754 40028 ft 500 kts 32°
2026-04-22 15:33 43.64778 -8.06388 40031 ft 499 kts 32°
2026-04-22 15:34 43.70513 -8.00989 40017 ft 499 kts 32°
2026-04-22 15:34 43.75774 -7.96026 40023 ft 499 kts 32°
2026-04-22 15:35 43.80543 -7.91520 40024 ft 499 kts 32°
2026-04-22 15:35 43.87240 -7.85178 40030 ft 498 kts 32°
2026-04-22 15:36 43.92963 -7.79744 40050 ft 498 kts 32°
2026-04-22 15:36 43.98689 -7.74293 40038 ft 498 kts 32°
2026-04-22 15:37 44.03880 -7.69340 40039 ft 498 kts 32°
2026-04-22 15:37 44.09599 -7.63872 40044 ft 498 kts 32°
2026-04-22 15:38 44.15312 -7.58396 40048 ft 498 kts 32°
2026-04-22 15:38 44.23868 -7.50171 40049 ft 498 kts 32°
2026-04-22 15:39 44.29582 -7.44661 40065 ft 498 kts 32°
2026-04-22 15:39 44.35278 -7.39155 40053 ft 498 kts 32°
2026-04-22 15:40 44.40970 -7.33640 40048 ft 497 kts 32°
2026-04-22 15:40 44.46660 -7.28113 40053 ft 497 kts 32°
2026-04-22 15:41 44.52301 -7.22622 40069 ft 496 kts 32°
2026-04-22 15:41 44.57972 -7.17087 40052 ft 496 kts 32°
2026-04-22 15:42 44.63627 -7.11554 40052 ft 496 kts 32°
2026-04-22 15:42 44.69289 -7.06001 40060 ft 495 kts 32°
2026-04-22 15:43 44.74941 -7.00443 40065 ft 495 kts 32°
2026-04-22 15:43 44.80587 -6.94879 40061 ft 495 kts 32°
2026-04-22 15:44 44.86334 -6.89549 40066 ft 493 kts 28°
2026-04-22 15:44 44.92262 -6.84696 40065 ft 493 kts 27°
2026-04-22 15:45 44.98170 -6.79916 40068 ft 493 kts 27°
2026-04-22 15:45 45.04106 -6.75056 40068 ft 493 kts 27°
2026-04-22 15:46 45.10036 -6.70154 40070 ft 493 kts 27°
2026-04-22 15:46 45.15952 -6.65244 40070 ft 493 kts 27°
2026-04-22 15:47 45.21868 -6.60323 40073 ft 492 kts 27°
2026-04-22 15:47 45.27779 -6.55396 40074 ft 492 kts 27°
2026-04-22 15:48 45.33680 -6.50468 40072 ft 492 kts 27°
2026-04-22 15:48 45.39580 -6.45527 40073 ft 491 kts 27°
2026-04-22 15:49 45.45462 -6.40590 40072 ft 491 kts 27°
2026-04-22 15:49 45.51310 -6.35669 40071 ft 491 kts 27°
2026-04-22 15:50 45.57188 -6.30710 40073 ft 490 kts 27°
2026-04-22 15:50 45.63058 -6.25746 40076 ft 490 kts 27°
2026-04-22 15:51 45.68925 -6.20773 40075 ft 490 kts 27°
2026-04-22 15:51 45.74790 -6.15789 40072 ft 489 kts 27°
2026-04-22 15:52 45.79117 -6.12103 40071 ft 489 kts 27°
2026-04-22 15:52 45.84971 -6.07108 40072 ft 489 kts 27°
2026-04-22 15:53 45.90814 -6.02108 40071 ft 489 kts 27°
2026-04-22 15:53 45.96620 -5.97128 40073 ft 489 kts 27°
2026-04-22 15:54 46.01976 -5.92524 40067 ft 488 kts 27°
2026-04-22 15:54 46.07807 -5.87499 40072 ft 488 kts 27°
2026-04-22 15:55 46.13634 -5.82464 40070 ft 488 kts 28°
2026-04-22 15:55 46.19455 -5.77422 40066 ft 488 kts 28°
2026-04-22 15:56 46.25280 -5.72365 40070 ft 488 kts 28°
2026-04-22 15:56 46.31098 -5.67300 40070 ft 488 kts 28°
2026-04-22 15:57 46.36880 -5.62254 40065 ft 488 kts 28°
2026-04-22 15:57 46.42693 -5.57168 40066 ft 488 kts 28°
2026-04-22 15:58 46.48506 -5.52070 40069 ft 488 kts 28°
2026-04-22 15:58 46.54295 -5.46979 40067 ft 488 kts 28°
2026-04-22 15:59 46.60096 -5.41866 40063 ft 488 kts 28°
2026-04-22 15:59 46.65789 -5.36424 40062 ft 490 kts 31°
2026-04-22 16:00 46.71375 -5.30717 40066 ft 490 kts 32°
2026-04-22 16:00 46.76948 -5.24993 40069 ft 490 kts 32°
2026-04-22 16:01 46.82531 -5.19292 40067 ft 490 kts 32°
2026-04-22 16:01 46.88120 -5.13595 40068 ft 490 kts 32°
2026-04-22 16:02 46.93704 -5.07892 40061 ft 489 kts 32°
2026-04-22 16:02 46.99289 -5.02171 40068 ft 489 kts 32°
2026-04-22 16:03 47.04828 -4.96482 40069 ft 489 kts 32°
2026-04-22 16:03 47.10395 -4.90748 40069 ft 489 kts 32°
2026-04-22 16:04 47.15969 -4.84992 40069 ft 489 kts 32°
2026-04-22 16:04 47.21541 -4.79223 40070 ft 488 kts 32°
2026-04-22 16:05 47.27093 -4.73462 40066 ft 488 kts 32°
2026-04-22 16:05 47.32640 -4.67687 40073 ft 488 kts 32°
2026-04-22 16:06 47.38160 -4.61926 40075 ft 488 kts 32°
2026-04-22 16:06 47.43708 -4.56122 40071 ft 489 kts 32°
2026-04-22 16:07 47.49252 -4.50307 40073 ft 489 kts 32°
2026-04-22 16:07 47.54797 -4.44474 40068 ft 488 kts 32°
2026-04-22 16:08 47.60343 -4.38626 40067 ft 488 kts 32°
2026-04-22 16:08 47.65876 -4.32775 40065 ft 488 kts 32°
2026-04-22 16:09 47.71371 -4.26950 40075 ft 488 kts 33°
2026-04-22 16:09 47.76410 -4.21594 40076 ft 488 kts 33°
2026-04-22 16:10 47.81935 -4.15706 40077 ft 488 kts 33°
2026-04-22 16:10 47.87448 -4.09815 40078 ft 488 kts 33°
2026-04-22 16:11 47.92961 -4.03910 40080 ft 488 kts 33°
2026-04-22 16:11 47.98480 -3.97981 40075 ft 488 kts 33°
2026-04-22 16:12 48.03523 -3.92550 40083 ft 488 kts 33°
2026-04-22 16:12 48.08999 -3.86636 40079 ft 488 kts 33°
2026-04-22 16:13 48.13775 -3.81466 40085 ft 488 kts 33°
2026-04-22 16:13 48.19270 -3.75503 40090 ft 488 kts 33°
2026-04-22 16:14 48.24237 -3.70099 40096 ft 488 kts 33°
2026-04-22 16:14 48.29736 -3.64100 40098 ft 488 kts 33°
2026-04-22 16:15 48.35227 -3.58128 40093 ft 487 kts 32°
2026-04-22 16:15 48.40758 -3.52353 40102 ft 486 kts 32°
2026-04-22 16:16 48.46324 -3.46596 40111 ft 485 kts 32°
2026-04-22 16:16 48.51870 -3.40816 40126 ft 483 kts 32°
2026-04-22 16:17 48.57387 -3.35027 40117 ft 482 kts 32°
2026-04-22 16:17 48.62885 -3.29233 40119 ft 481 kts 32°
2026-04-22 16:18 48.68368 -3.23441 40141 ft 480 kts 32°
2026-04-22 16:18 48.73820 -3.17667 40125 ft 480 kts 32°
2026-04-22 16:19 48.79281 -3.11869 40129 ft 479 kts 32°
2026-04-22 16:19 48.84743 -3.06055 40129 ft 479 kts 32°
2026-04-22 16:20 48.90193 -3.00236 40136 ft 478 kts 32°
2026-04-22 16:20 48.95631 -2.94415 40139 ft 477 kts 32°
2026-04-22 16:21 49.01055 -2.88593 40147 ft 477 kts 32°
2026-04-22 16:21 49.06476 -2.82759 40145 ft 476 kts 32°
2026-04-22 16:22 49.14579 -2.74008 40152 ft 475 kts 32°